デニング-藤川彗星

72D/Denning-Fujikawa (1996)

English version
Home page
Updated on September 12, 2009

---------------------------------------------------------------------

・ プロフィール

・ 軌道要素

Epoch 1996 June 6.0 TT = JDT 2450240.5  
T 1996 May 29.77633 TT                                  Muraoka 
q   0.7901853            (2000.0)            P               Q
n   0.10912922     Peri.  337.57579     +0.96757798     -0.23438577
a   4.3368595      Node    36.38922     +0.24905163     +0.82339377
e   0.8177978      Incl.    9.12711     +0.04202554     +0.51680365
P   9.03
>From 28 observations 1881-1978, mean residual 2".24.  Nongravitational
   parameters A1 = -0.01 +/- 0.03, A2 = +0.0240 +/- 0.0005.

・ 星図

・ 1996年 3月18日〜1996年 6月16日
・ 1996年 6月 6日〜1996年12月 3日

・ 光度変化

        m1 = 15.5 + 5 logΔ + 25.0 log r

---------------------------------------------------------------------

軌道要素は村岡健治氏の計算によるものです。
星図は StellaNavigator Ver.2.0 for Windows (アストロアーツ 編著 / アスキー出版局刊) で作成したものです。
光度グラフはComet for Windowsで作成したものです。

---------------------------------------------------------------------

Copyright(C) Seiichi Yoshida (comet@aerith.net). All rights reserved.